ASAP-S (44875 NORAD) Tracking and Keplerian Element Data

This shows tracking and keplerian element data for the satellite.

Feedback or suggestion? Click here.




ElementValue
Catalog44875
NameASAP-S
Epoch Orbit435
Epoch Day16.24296033
Epoch Year2020
RAAN204.5191
Inclination98.0052
Eccentricity0.0126953
Argument of Perigee300.6184
Mean Anonmoly58.265
Mean Motion15.11303181
Decay Rate1.209E-05
L11 44875U 19092C 20016.24296033 .00001209 00000-0 63509-4 0 9996
L22 44875 98.0052 204.5191 0126953 300.6184 58.2650 15.11303181 4356

Live tracking and technical data element details for ASAP-S (NORAD 44875). ASAP-S can be tracked NOW for your location showing map with azimuth and elevation plus other details from your city location.

Track the satellite on the map from your city or location and see movement details for azimuth, elevation, latitude, longitude, range, height, and movement on the map or in text.







IsCatalogInMostPopularTable: catalog: 44875, numindb: 6
Update: records affected: 1



GetName: 44875 ASAP-S

Hit Count: updated at: Fri, 24 Jan 2020 14:38:36 GMT